This demonstration page uses our WeatherBlox Daily Observations layout. Learn more.

Left ArrowRight Arrow

Hourly Observations for September 24, 2022

Temp ( °F °C ) Dew Point ( °F °C ) Humidity (%) Winds ( mph kmh ) Pressure ( in mb ) Visibility ( mi km ) Precip ( " mm )
12:53 am 00:53 Clear 79 26.1 72 22.2 79 79 SE 7 11 29.95 1014 10 16 0.00 0.00
1:53 am 01:53 Partly Cloudy 79 26.1 72 22.2 79 79 ESE 7 11 29.94 1014 10 16 0.00 0.00
2:53 am 02:53 Mostly Clear 79 26.1 71 21.7 77 77 ESE 5 7 29.92 1013 10 16 0.00 0.00
3:53 am 03:53 Mostly Cloudy 79 26.1 71 21.7 77 77 E 7 11 29.92 1013 10 16 0.00 0.00
4:09 am 04:09 Mostly Cloudy 79 26.1 71 21.7 77 77 E 6 9 29.93 1013 10 16 0.00 0.00
4:53 am 04:53 Clear 78 25.6 70 21.1 76 76 NE 3 6 29.93 1014 10 16 0.00 0.00
5:53 am 05:53 Mostly Clear 77 25 70 21.1 79 79 NE 5 7 29.94 1014 10 16 0.00 0.00
6:53 am 06:53 Sunny 78 25.6 70 21.1 76 76 N 6 9 29.95 1014 10 16 0.00 0.00
7:09 am 07:09 Sunny 80 26.7 70 21.1 71 71 N 7 11 29.95 1014 10 16 0.00 0.00
7:53 am 07:53 Sunny 82 27.8 71 21.7 69 69 N 9 15 29.96 1015 10 16 0.00 0.00
8:53 am 08:53 Sunny 84 28.9 72 22.2 67 67 NNW 9 15 29.98 1015 10 16 0.00 0.00
9:53 am 09:53 Sunny 85 29.4 72 22.2 65 65 NW 9 15 30.00 1016 10 16 0.00 0.00
10:53 am 10:53 Sunny 85 29.4 74 23.3 70 70 W 9 15 29.99 1016 10 16 0.00 0.00
11:33 am 11:33 Mostly Sunny 87 30.6 74 23.3 65 65 W 9 15 29.97 1015 10 16 0.00 0.00
11:53 am 11:53 Mostly Sunny 85 29.4 74 23.3 70 70 W 10 17 29.97 1015 10 16 0.00 0.00
12:53 pm 12:53 Partly Cloudy 86 30 73 22.8 65 65 WSW 9 15 29.94 1014 10 16 0.00 0.00
1:53 pm 13:53 Partly Cloudy 86 30 73 22.8 65 65 WSW 10 17 29.92 1013 10 16 0.00 0.00
2:53 pm 14:53 Sunny 86 30 73 22.8 65 65 WSW 9 15 29.91 1013 10 16 0.00 0.00
3:53 pm 15:53 Partly Cloudy 86 30 73 22.8 65 65 SW 10 17 29.91 1013 10 16 0.00 0.00
4:53 pm 16:53 Sunny 84 28.9 73 22.8 70 70 S 10 17 29.92 1013 10 16 0.00 0.00
5:53 pm 17:53 Sunny 83 28.3 72 22.2 70 70 S 13 20 29.93 1014 10 16 0.00 0.00
6:53 pm 18:53 Clear 82 27.8 73 22.8 74 74 SSW 10 17 29.95 1014 10 16 0.00 0.00
7:53 pm 19:53 Clear 82 27.8 72 22.2 72 72 S 6 9 29.96 1015 10 16 0.00 0.00
8:53 pm 20:53 Cloudy 82 27.8 73 22.8 74 74 SSW 5 7 29.99 1016 10 16 0.00 0.00
9:53 pm 21:53 Cloudy 82 27.8 73 22.8 74 74 WNW 3 6 30.00 1016 10 16 0.00 0.00
10:53 pm 22:53 Cloudy 82 27.8 74 23.3 77 77 N 5 7 30.00 1016 10 16 0.00 0.00
11:45 pm 23:45 Cloudy with Rain 81 27.2 75 23.9 82 82 WNW 6 9 30.00 1016 7 11 0.01 0.25
11:53 pm 23:53 Cloudy with Light Rain 81 27.2 74 23.3 79 79 WNW 6 9 29.99 1016 9 14 0.01 0.25

Powered by AerisWeather